Regional Weather Roundup
Issued by NWS State College, PA

Home | Current Version | Previous Version | Text Only | Print | Product List | Glossary On
Versions: 1 2 3 4 5 6 7 8 9 10 11 12 13 14 15 16 17 18 19 20 21 22 23 24 25 26 27 28 29 30 31 32 33 34 35 36 37 38 39 40 41 42 43 44 45 46 47 48 49 50
000
ASUS41 KCTP 240010
RWRCTP

REGIONAL WEATHER ROUNDUP
NATIONAL WEATHER SERVICE STATE COLLEGE PA
800 PM EDT SUN APR 23 2017

Note: "fair" indicates few or no clouds below 12,000 feet with no
significant weather and/or obstructions to visibility.

* = STATION THAT DOES NOT REPORT PRECIPITATION /E.G. RAIN...SNOW...ETC/
    THUNDER OR FOG.

PAZ002>004-007>009-013>016-020>023-029>032-240100-
WESTERN PENNSYLVANIA

CITY           SKY/WX    TMP DP  RH WIND       PRES   REMARKS
ERIE           CLOUDY    55  34  45 CALM      30.06S
MEADVILLE      CLOUDY    56  35  45 N8        30.05R
FRANKLIN*      CLOUDY    63  27  25 N8        30.05R
NEW CASTLE     FAIR      59  39  47 CALM      30.03S
BEAVER COUNTY  NOT AVBL
BUTLER*        CLOUDY    64  32  29 CALM      30.03S
PITTSBURGH INT CLOUDY    66  31  27 SE6       30.02R
PITTSBURGH     CLOUDY    63  26  24 E6        30.01S
INDIANA*       CLEAR     63  28  27 SE5       30.06R
LATROBE        NOT AVBL
WASHINGTON CO* MOCLDY    61  36  39 NE3       30.03S
$$

PAZ004>006-010>012-017>019-024>028-033>037-041-042-045-046-049>053-240100-
CENTRAL PENNSYLVANIA

CITY           SKY/WX    TMP DP  RH WIND       PRES   REMARKS
BRADFORD       CLOUDY    59  26  28 NW6       30.04R
DUBOIS         CLEAR     61  23  23 CALM      30.03S
CLEARFIELD     CLEAR     61  29  29 S3        30.04R
JOHNSTOWN      CLOUDY    55  32  41 CALM      30.05R
ALTOONA        CLOUDY    58  31  35 CALM      30.06S
STATE COLLEGE  CLEAR     61  32  33 S6        30.06R
WILLIAMSPORT   CLEAR     63  31  30 CALM      30.03S
SELINSGROVE    CLOUDY    60  42  51 CALM      30.06S
FT INDIANTOWN  CLOUDY    60  39  45 SW3       30.07R
CAPITAL CITY   PTCLDY    61  38  42 S3        30.07S
HARRISBURG     CLOUDY    59  49  69 CALM      30.06S
YORK           PTCLDY    58  45  62 VRB3      30.07R
$$

PAZ038>040-043-044-047-048-054-055-060>062-067>071-240100-
EASTERN PENNSYLVANIA

CITY           SKY/WX    TMP DP  RH WIND       PRES   REMARKS
SCRANTON       PTCLDY    64  36  35 S6        30.04R
MOUNT POCONO   CLOUDY    54  34  46 SW6       30.08R
ALLENTOWN      CLOUDY    60  38  43 S5        30.06R
QUAKERTOWN*    MOCLDY    59  39  47 CALM      30.08R
READING        PTCLDY    61  45  55 SW5       30.06R
LANCASTER      CLOUDY    61  43  51 S5        30.07S
COATESVILLE    CLOUDY    57  43  58 CALM      30.10R
POTTSTOWN      PTCLDY    60  39  45 CALM      30.08S
BLUE BELL      PTCLDY    55  45  67 S7        30.09R
DOYLESTOWN     MOCLDY    58  40  51 CALM      30.07R
WILLOW GROVE   NOT AVBL
NORTH PHILA    CLOUDY    59  46  62 S6        30.10R
PHILADELPHIA   CLOUDY    57  46  66 S7        30.10R
$$



USA.gov is the U.S. government's official web portal to all federal, state and local government web resources and services.